Weather History for Hastings, NE

Change the Weather History Date:

Friday, April 12, 2013

  Actual Average Record
Temperature  
Mean Temperature 37 °F 50 °F  
Max Temperature 47 °F 62 °F 85 °F (1916)
Min Temperature 26 °F 37 °F 14 °F (1940)
Degree Days  
Heating Degree Days 28 16  
Month to date heating degree days 259 208  
Since 1 July heating degree days 5768 5615  
Cooling Degree Days 0 0  
Month to date cooling degree days 0 0  
Year to date cooling degree days 0 0  
Moisture  
Dew Point 27 °F    
Average Humidity 71    
Maximum Humidity 89    
Minimum Humidity 53    
Precipitation  
Precipitation T in 0.08 in 2.70 in (1896)
Month to date precipitation 1.17 0.78  
Year to date precipitation 4.64 3.47  
Snow  
Snow 0.00 in 0.00 in 4.00 in (1920)
Month to date snowfall 1.2 0.8  
Since 1 July snowfall 32.9 28.4  
Snow Depth T in    
Sea Level Pressure  
Sea Level Pressure 29.95 in    
Wind  
Wind Speed 10 mph (NW)    
Max Wind Speed 18 mph    
Max Gust Speed 23 mph    
Visibility 10 miles    
Events      
T = Trace of Precipitation, MM = Missing Value Source: NWS Daily Summary

Daily Weather History Graph

Daily Weather History Graph

Search for Another Location

Airport:

Trip Planner

Search our weather history database for the weather conditions in past years. The results will help you decide how hot, cold, wet, or windy it might be!

Date:

Astronomy

Apr. 12, 2013 Rise Set
Actual Time 6:59 AM CDT 8:10 PM CDT
Civil Twilight 6:31 AM CDT 8:38 PM CDT
Nautical Twilight 5:57 AM CDT 9:12 PM CDT
Astronomical Twilight 5:22 AM CDT 9:47 PM CDT
Moon 8:09 AM CDT (4/12) 10:42 PM CDT (4/12)
Length of Visible Light 14h 07m
Length of Day
13h 10m
Waxing Crescent, 5% of the Moon is Illuminated
Apr 12
Waxing Crescent
Apr 18
First Quarter
Apr 25
Full
May 2
Last Quarter
May 9
New

Hourly Weather History & Observations

Time (CDT) Temp. Windchill Dew Point Humidity Pressure Visibility Wind Dir Wind Speed Gust Speed Precip Events Conditions
12:53 AM 28.9 °F 17.3 °F 24.1 °F 82% 29.87 in 10.0 mi NW 16.1 mph - N/A   Scattered Clouds
1:44 AM 28.4 °F 16.2 °F 24.8 °F 86% 29.82 in 10.0 mi NW 17.3 mph - N/A   Mostly Cloudy
1:53 AM 28.9 °F 17.3 °F 24.1 °F 82% 29.87 in 10.0 mi NW 16.1 mph - N/A   Mostly Cloudy
2:13 AM 28.4 °F 17.0 °F 23.0 °F 80% 29.82 in 10.0 mi NW 15.0 mph - N/A   Scattered Clouds
2:53 AM 28.0 °F 16.5 °F 23.0 °F 81% 29.87 in 10.0 mi NW 15.0 mph - N/A   Clear
3:53 AM 27.0 °F 16.1 °F 21.9 °F 81% 29.88 in 10.0 mi NW 12.7 mph - N/A   Clear
4:53 AM 26.1 °F 16.2 °F 21.9 °F 84% 29.89 in 10.0 mi NW 10.4 mph - N/A   Clear
5:53 AM 26.1 °F 15.6 °F 21.9 °F 84% 29.91 in 10.0 mi NW 11.5 mph - N/A   Clear
6:53 AM 26.1 °F 16.2 °F 21.9 °F 84% 29.93 in 10.0 mi NW 10.4 mph - N/A   Mostly Cloudy
7:28 AM 26.6 °F 17.5 °F 23.0 °F 86% 29.88 in 10.0 mi NW 9.2 mph - N/A   Overcast
7:53 AM 28.0 °F 18.1 °F 23.0 °F 81% 29.96 in 10.0 mi NW 11.5 mph - N/A   Overcast
8:53 AM 28.9 °F 20.4 °F 24.1 °F 82% 29.97 in 10.0 mi NNW 9.2 mph - N/A   Overcast
9:53 AM 30.9 °F 22.2 °F 25.0 °F 79% 29.97 in 10.0 mi North 10.4 mph - N/A   Overcast
10:26 AM 32.0 °F 24.2 °F 24.8 °F 75% 29.92 in 10.0 mi NW 9.2 mph - N/A   Scattered Clouds
10:53 AM 34.0 °F 26.0 °F 27.0 °F 75% 29.99 in 10.0 mi NW 10.4 mph - N/A   Clear
11:53 AM 36.0 °F 28.0 °F 28.0 °F 73% 29.99 in 10.0 mi NW 11.5 mph - N/A   Clear
12:53 PM 37.9 °F 30.0 °F 30.0 °F 73% 29.99 in 10.0 mi NW 12.7 mph - N/A   Clear
1:53 PM 41.0 °F 33.9 °F 30.9 °F 67% 29.99 in 10.0 mi WNW 12.7 mph - N/A   Clear
2:53 PM 44.1 °F 37.4 °F 30.9 °F 60% 29.99 in 10.0 mi NW 13.8 mph - N/A   Clear
3:53 PM 45.0 °F 38.5 °F 30.9 °F 58% 29.98 in 10.0 mi NW 13.8 mph - N/A   Partly Cloudy
4:53 PM 46.9 °F - 30.9 °F 54% 29.97 in 10.0 mi NNW 12.7 mph - N/A   Partly Cloudy
5:53 PM 46.0 °F 39.9 °F 30.0 °F 54% 30.01 in 10.0 mi NNW 13.8 mph - N/A   Overcast
6:53 PM 42.1 °F 37.1 °F 32.0 °F 67% 30.02 in 10.0 mi NW 8.1 mph - N/A   Overcast
7:53 PM 39.9 °F 35.8 °F 33.1 °F 77% 30.00 in 10.0 mi WNW 5.8 mph - 0.00 in   Overcast
8:53 PM 37.9 °F 33.5 °F 33.1 °F 83% 30.01 in 10.0 mi WSW 5.8 mph - N/A   Overcast
9:53 PM 36.0 °F 30.3 °F 32.0 °F 86% 30.03 in 10.0 mi West 6.9 mph - N/A   Partly Cloudy
10:53 PM 35.1 °F 30.1 °F 30.9 °F 85% 30.05 in 10.0 mi West 5.8 mph - N/A   Clear
11:53 PM 35.1 °F 31.0 °F 30.9 °F 85% 30.05 in 10.0 mi West 4.6 mph - N/A   Partly Cloudy